| time (UTC) | temp C | wind direction | speed KPH | gust KPH | rain 1hr cm | rain 24hr cm | rain mn cm | humidity % | barometer mb |
| 20260510150017 | 15 | 77 | 6.4 | 14.5 | 0.00 | 0.00 | 0.00 | 48 | 1018.2 |
| 20260510145506 | 15 | 76 | 8.0 | 14.5 | 0.00 | 0.00 | 0.00 | 45 | 1018.4 |
| 20260510145007 | 15 | 290 | 1.6 | 12.9 | 0.00 | 0.00 | 0.00 | 48 | 1018.3 |
| 20260510144526 | 15 | 356 | 6.4 | 12.9 | 0.00 | 0.00 | 0.00 | 48 | 1018.4 |
| 20260510144007 | 15 | 53 | 3.2 | 9.7 | 0.00 | 0.00 | 0.00 | 47 | 1018.5 |
| 20260510143506 | 15 | 69 | 3.2 | 9.7 | 0.00 | 0.00 | 0.00 | 50 | 1018.5 |
| 20260510143028 | 15 | 333 | 1.6 | 9.7 | 0.00 | 0.00 | 0.00 | 52 | 1018.5 |
| 20260510142507 | 14 | 56 | 6.4 | 11.3 | 0.00 | 0.00 | 0.00 | 50 | 1018.6 |
| 20260510142006 | 14 | 27 | 4.8 | 11.3 | 0.00 | 0.00 | 0.00 | 50 | 1018.5 |
| 20260510141524 | 14 | 63 | 3.2 | 9.7 | 0.00 | 0.00 | 0.00 | 51 | 1018.5 |
| 20260510141005 | 14 | 45 | 4.8 | 12.9 | 0.00 | 0.00 | 0.00 | 53 | 1018.4 |
| 20260510140503 | 13 | 44 | 6.4 | 12.9 | 0.00 | 0.00 | 0.00 | 55 | 1018.4 |
| 20260510140013 | 13 | 41 | 6.4 | 14.5 | 0.00 | 0.00 | 0.00 | 53 | 1018.4 |
| 20260510134521 | 12 | 51 | 8.0 | 16.1 | 0.00 | 0.00 | 0.00 | 56 | 1018.2 |
| 20260510134007 | 12 | 55 | 9.7 | 16.1 | 0.00 | 0.00 | 0.00 | 56 | 1018.2 |
| 20260510133504 | 12 | 56 | 9.7 | 16.1 | 0.00 | 0.00 | 0.00 | 56 | 1018.2 |
| 20260510133022 | 12 | 48 | 8.0 | 14.5 | 0.00 | 0.00 | 0.00 | 57 | 1018.2 |
| 20260510132507 | 12 | 54 | 8.0 | 14.5 | 0.00 | 0.00 | 0.00 | 58 | 1018.1 |
| 20260510132010 | 12 | 51 | 11.3 | 14.5 | 0.00 | 0.00 | 0.00 | 59 | 1018.1 |
| 20260510131524 | 12 | 47 | 8.0 | 16.1 | 0.00 | 0.00 | 0.00 | 60 | 1018.0 |
| 20260510131007 | 11 | 57 | 8.0 | 16.1 | 0.00 | 0.00 | 0.00 | 60 | 1017.9 |
| 20260510130509 | 11 | 46 | 11.3 | 16.1 | 0.00 | 0.00 | 0.00 | 60 | 1017.8 |
| 20260510130024 | 11 | 51 | 12.9 | 16.1 | 0.00 | 0.00 | 0.00 | 59 | 1017.7 |
| 20260510125503 | 11 | 54 | 9.7 | 16.1 | 0.00 | 0.00 | 0.00 | 62 | 1017.6 |
| 20260510125008 | 11 | 68 | 11.3 | 16.1 | 0.00 | 0.00 | 0.00 | 61 | 1017.5 |
| 20260510124515 | 11 | 63 | 11.3 | 14.5 | 0.00 | 0.00 | 0.00 | 61 | 1017.4 |
| 20260510124004 | 10 | 67 | 9.7 | 12.9 | 0.00 | 0.00 | 0.00 | 62 | 1017.3 |
| 20260510123018 | 10 | 62 | 8.0 | 12.9 | 0.00 | 0.00 | 0.00 | 66 | 1017.3 |
| 20260510122507 | 10 | 73 | 8.0 | 12.9 | 0.00 | 0.00 | 0.00 | 66 | 1017.3 |
| 20260510122007 | 10 | 55 | 8.0 | 12.9 | 0.00 | 0.00 | 0.00 | 68 | 1017.2 |
| 20260510121520 | 10 | 68 | 9.7 | 12.9 | 0.00 | 0.00 | 0.00 | 69 | 1017.2 |
| 20260510121007 | 9 | 54 | 6.4 | 9.7 | 0.00 | 0.00 | 0.00 | 72 | 1017.2 |
| 20260510120508 | 9 | 68 | 6.4 | 9.7 | 0.00 | 0.00 | 0.00 | 73 | 1017.2 |
| 20260510120024 | 9 | 51 | 6.4 | 9.7 | 0.00 | 0.00 | 0.00 | 74 | 1017.0 |
| 20260510115511 | 8 | 65 | 4.8 | 8.0 | 0.00 | 0.00 | 0.00 | 76 | 1017.0 |
| 20260510115010 | 8 | 61 | 3.2 | 8.0 | 0.00 | 0.00 | 0.00 | 78 | 1016.8 |
| 20260510114526 | 8 | 50 | 4.8 | 8.0 | 0.00 | 0.00 | 0.00 | 78 | 1016.6 |
| 20260510114004 | 8 | 49 | 3.2 | 4.8 | 0.00 | 0.00 | 0.00 | 80 | 1016.6 |
| 20260510113503 | 8 | 55 | 3.2 | 4.8 | 0.00 | 0.00 | 0.00 | 79 | 1016.5 |
| 20260510112510 | 7 | 45 | 1.6 | 4.8 | 0.00 | 0.00 | 0.00 | 83 | 1016.2 |
| 20260510112009 | 7 | 34 | 0.0 | 1.6 | 0.00 | 0.00 | 0.00 | 83 | 1016.2 |
| 20260510111521 | 7 | 30 | 0.0 | 3.2 | 0.00 | 0.00 | 0.00 | 83 | 1016.2 |
| 20260510111012 | 7 | 30 | 0.0 | 3.2 | 0.00 | 0.00 | 0.00 | 84 | 1016.0 |
| 20260510110506 | 7 | 29 | 1.6 | 3.2 | 0.00 | 0.00 | 0.00 | 84 | 1015.9 |
| 20260510110032 | 7 | 28 | 1.6 | 4.8 | 0.00 | 0.00 | 0.00 | 85 | 1015.8 |
| 20260510105507 | 7 | 41 | 0.0 | 8.0 | 0.00 | 0.00 | 0.00 | 85 | 1015.9 |
| 20260510105011 | 7 | 51 | 3.2 | 8.0 | 0.00 | 0.00 | 0.00 | 86 | 1015.7 |
| 20260510104524 | 7 | 58 | 0.0 | 0.0 | 0.00 | 0.00 | 0.00 | 85 | 1015.6 |
| 20260510104010 | 7 | 58 | 0.0 | 0.0 | 0.00 | 0.00 | 0.00 | 84 | 1015.3 |
| 20260510103507 | 7 | 58 | 0.0 | 0.0 | 0.00 | 0.00 | 0.00 | 85 | 1015.2 |
| 20260510103028 | 7 | 100 | 0.0 | 0.0 | 0.00 | 0.00 | 0.00 | 84 | 1015.1 |
| 20260510102507 | 7 | 72 | 0.0 | 0.0 | 0.00 | 0.00 | 0.00 | 84 | 1014.8 |
| 20260510102004 | 7 | 72 | 0.0 | 0.0 | 0.00 | 0.00 | 0.00 | 83 | 1014.8 |
| 20260510101519 | 8 | 93 | 0.0 | 0.0 | 0.00 | 0.00 | 0.00 | 82 | 1014.7 |
| 20260510101008 | 8 | 94 | 0.0 | 0.0 | 0.00 | 0.00 | 0.00 | 81 | 1014.7 |
| 20260510100503 | 8 | 94 | 0.0 | 0.0 | 0.00 | 0.00 | 0.00 | 81 | 1014.5 |
| 20260510100005 | 8 | 94 | 0.0 | 0.0 | 0.00 | 0.00 | 0.00 | 80 | 1014.4 |
| 20260510095505 | 8 | 91 | 0.0 | 0.0 | 0.00 | 0.00 | 0.00 | 80 | 1014.3 |
| 20260510095003 | 9 | 40 | 0.0 | 4.8 | 0.00 | 0.00 | 0.00 | 79 | 1014.2 |
| 20260510094508 | 9 | 64 | 0.0 | 4.8 | 0.00 | 0.00 | 0.00 | 79 | 1014.1 |
| 20260510094004 | 9 | 352 | 0.0 | 4.8 | 0.00 | 0.00 | 0.00 | 80 | 1014.0 |
| 20260510093504 | 9 | 133 | 0.0 | 3.2 | 0.00 | 0.00 | 0.00 | 80 | 1013.9 |
| 20260510093012 | 9 | 106 | 0.0 | 0.0 | 0.00 | 0.00 | 0.00 | 80 | 1013.9 |
| 20260510092504 | 10 | 37 | 0.0 | 0.0 | 0.00 | 0.00 | 0.00 | 80 | 1013.8 |
| 20260510092004 | 10 | 37 | 0.0 | 0.0 | 0.00 | 0.00 | 0.00 | 80 | 1013.7 |
| 20260510091516 | 10 | 37 | 0.0 | 0.0 | 0.00 | 0.00 | 0.00 | 78 | 1013.7 |
| 20260510090504 | 10 | 29 | 0.0 | 0.0 | 0.00 | 0.00 | 0.00 | 76 | 1013.5 |
| 20260510090031 | 11 | 29 | 0.0 | 0.0 | 0.00 | 0.00 | 0.00 | 76 | 1013.5 |
| 20260510085511 | 11 | 29 | 0.0 | 0.0 | 0.00 | 0.00 | 0.00 | 76 | 1013.6 |
| 20260510085002 | 11 | 29 | 0.0 | 0.0 | 0.00 | 0.00 | 0.00 | 76 | 1013.5 |
| 20260510084506 | 11 | 29 | 0.0 | 0.0 | 0.00 | 0.00 | 0.00 | 75 | 1013.6 |
| 20260510084004 | 11 | 36 | 0.0 | 0.0 | 0.00 | 0.00 | 0.00 | 75 | 1013.5 |
| 20260510083505 | 11 | 36 | 0.0 | 0.0 | 0.00 | 0.00 | 0.00 | 75 | 1013.5 |
| 20260510083009 | 12 | 36 | 0.0 | 0.0 | 0.00 | 0.00 | 0.00 | 74 | 1013.6 |
| 20260510082506 | 12 | 36 | 0.0 | 0.0 | 0.00 | 0.00 | 0.00 | 74 | 1013.5 |
| 20260510082004 | 12 | 36 | 0.0 | 0.0 | 0.00 | 0.00 | 0.00 | 74 | 1013.4 |
| 20260510081514 | 12 | 36 | 0.0 | 0.0 | 0.00 | 0.00 | 0.00 | 74 | 1013.4 |
| 20260510081004 | 12 | 36 | 0.0 | 0.0 | 0.00 | 0.00 | 0.00 | 74 | 1013.3 |
| 20260510080506 | 12 | 36 | 0.0 | 0.0 | 0.00 | 0.00 | 0.00 | 72 | 1013.2 |
| 20260510080015 | 12 | 36 | 0.0 | 0.0 | 0.00 | 0.00 | 0.00 | 72 | 1013.3 |
| 20260510075507 | 12 | 36 | 0.0 | 0.0 | 0.00 | 0.00 | 0.00 | 72 | 1013.4 |
| 20260510074521 | 12 | 36 | 0.0 | 0.0 | 0.00 | 0.00 | 0.00 | 71 | 1013.3 |
| 20260510074006 | 12 | 36 | 0.0 | 0.0 | 0.00 | 0.00 | 0.00 | 70 | 1013.3 |
| 20260510073503 | 13 | 36 | 0.0 | 0.0 | 0.00 | 0.00 | 0.00 | 69 | 1013.3 |
| 20260510073005 | 13 | 45 | 0.0 | 0.0 | 0.00 | 0.00 | 0.00 | 69 | 1013.2 |
| 20260510071510 | 13 | 45 | 0.0 | 0.0 | 0.00 | 0.00 | 0.00 | 68 | 1013.2 |
| 20260510071004 | 13 | 45 | 0.0 | 0.0 | 0.00 | 0.00 | 0.00 | 67 | 1013.2 |
| 20260510070503 | 13 | 45 | 0.0 | 0.0 | 0.00 | 0.00 | 0.00 | 67 | 1013.3 |
| 20260510070014 | 13 | 45 | 0.0 | 0.0 | 0.00 | 0.00 | 0.00 | 68 | 1013.2 |
| 20260510065509 | 13 | 45 | 0.0 | 0.0 | 0.00 | 0.00 | 0.00 | 68 | 1013.1 |
| 20260510064520 | 13 | 41 | 0.0 | 3.2 | 0.00 | 0.00 | 0.00 | 67 | 1012.5 |
| 20260510064009 | 13 | 31 | 1.6 | 3.2 | 0.00 | 0.00 | 0.00 | 68 | 1012.4 |
| 20260510063509 | 13 | 335 | 0.0 | 3.2 | 0.00 | 0.00 | 0.00 | 67 | 1012.4 |
| 20260510063022 | 13 | 23 | 0.0 | 6.4 | 0.00 | 0.00 | 0.00 | 67 | 1012.2 |
| 20260510062511 | 13 | 13 | 1.6 | 8.0 | 0.00 | 0.00 | 0.00 | 68 | 1012.1 |
| 20260510061506 | 13 | 39 | 3.2 | 6.4 | 0.00 | 0.00 | 0.00 | 67 | 1012.4 |
| 20260510061004 | 14 | 45 | 3.2 | 6.4 | 0.00 | 0.00 | 0.00 | 68 | 1012.3 |
| 20260510060009 | 14 | 85 | 1.6 | 3.2 | 0.00 | 0.00 | 0.00 | 65 | 1012.2 |
| 20260510055508 | 14 | 168 | 0.0 | 0.0 | 0.00 | 0.00 | 0.00 | 66 | 1012.3 |
| 20260510054520 | 15 | 168 | 0.0 | 0.0 | 0.00 | 0.00 | 0.00 | 62 | 1012.2 |
| 20260510054008 | 15 | 150 | 0.0 | 0.0 | 0.00 | 0.00 | 0.00 | 61 | 1012.0 |
| 20260510053021 | 15 | 155 | 0.0 | 1.6 | 0.00 | 0.00 | 0.00 | 60 | 1012.0 |
| 20260510052507 | 15 | 236 | 0.0 | 3.2 | 0.00 | 0.00 | 0.00 | 60 | 1011.9 |
| 20260510052009 | 15 | 292 | 0.0 | 3.2 | 0.00 | 0.00 | 0.00 | 60 | 1011.7 |
| 20260510051525 | 15 | 64 | 0.0 | 3.2 | 0.00 | 0.00 | 0.00 | 59 | 1011.6 |
| 20260510051007 | 15 | 92 | 0.0 | 3.2 | 0.00 | 0.00 | 0.00 | 59 | 1011.6 |
| 20260510050008 | 16 | 119 | 1.6 | 4.8 | 0.00 | 0.00 | 0.00 | 59 | 1011.5 |
| 20260510044510 | 16 | 233 | 1.6 | 4.8 | 0.00 | 0.00 | 0.00 | 57 | 1011.4 |
| 20260510044002 | 16 | 88 | 1.6 | 4.8 | 0.00 | 0.00 | 0.00 | 58 | 1011.4 |
| 20260510043021 | 16 | 326 | 1.6 | 4.8 | 0.00 | 0.00 | 0.00 | 59 | 1011.4 |
| 20260510041522 | 16 | 323 | 1.6 | 6.4 | 0.00 | 0.00 | 0.00 | 60 | 1011.1 |
| 20260510041008 | 16 | 303 | 0.0 | 1.6 | 0.00 | 0.00 | 0.00 | 60 | 1011.0 |
| 20260510040509 | 16 | 328 | 0.0 | 1.6 | 0.00 | 0.00 | 0.00 | 60 | 1011.0 |
| 20260510040024 | 16 | 337 | 0.0 | 0.0 | 0.00 | 0.00 | 0.00 | 60 | 1011.0 |
| 20260510035507 | 16 | 302 | 0.0 | 0.0 | 0.00 | 0.00 | 0.00 | 59 | 1010.9 |
| 20260510034507 | 16 | 302 | 0.0 | 0.0 | 0.00 | 0.00 | 0.00 | 60 | 1010.7 |
| 20260510034003 | 16 | 302 | 0.0 | 0.0 | 0.00 | 0.00 | 0.00 | 60 | 1010.5 |
| 20260510033012 | 16 | 302 | 0.0 | 1.6 | 0.00 | 0.00 | 0.00 | 57 | 1010.2 |
| 20260510032009 | 16 | 326 | 0.0 | 4.8 | 0.00 | 0.00 | 0.00 | 56 | 1010.0 |
| 20260510031523 | 16 | 336 | 1.6 | 4.8 | 0.00 | 0.00 | 0.00 | 57 | 1009.9 |
| 20260510025509 | 16 | 266 | 0.0 | 0.0 | 0.00 | 0.00 | 0.00 | 62 | 1009.6 |
| 20260510025009 | 16 | 262 | 0.0 | 0.0 | 0.00 | 0.00 | 0.00 | 61 | 1009.6 |
| 20260510024526 | 16 | 261 | 0.0 | 0.0 | 0.00 | 0.00 | 0.00 | 62 | 1009.5 |
| 20260510024008 | 17 | 261 | 0.0 | 0.0 | 0.00 | 0.00 | 0.00 | 61 | 1009.5 |
| 20260510023008 | 17 | 333 | 0.0 | 0.0 | 0.00 | 0.00 | 0.00 | 56 | 1009.3 |
| 20260510022004 | 17 | 333 | 0.0 | 0.0 | 0.00 | 0.00 | 0.00 | 55 | 1009.2 |
| 20260510020018 | 17 | 337 | 0.0 | 0.0 | 0.00 | 0.00 | 0.00 | 54 | 1009.0 |
| 20260510014010 | 18 | 344 | 0.0 | 3.2 | 0.00 | 0.00 | 0.00 | 51 | 1008.5 |
| 20260510013512 | 18 | 328 | 0.0 | 4.8 | 0.00 | 0.00 | 0.00 | 50 | 1008.5 |
| 20260510013026 | 18 | 338 | 1.6 | 8.0 | 0.00 | 0.00 | 0.00 | 50 | 1008.4 |
| 20260510012004 | 18 | 322 | 0.0 | 4.8 | 0.00 | 0.00 | 0.00 | 50 | 1008.3 |
| 20260510011512 | 18 | 310 | 0.0 | 4.8 | 0.00 | 0.00 | 0.00 | 49 | 1008.3 |
| 20260510011003 | 18 | 6 | 1.6 | 4.8 | 0.00 | 0.00 | 0.00 | 49 | 1008.2 |
| 20260510005509 | 18 | 188 | 1.6 | 4.8 | 0.00 | 0.00 | 0.00 | 46 | 1008.0 |
| 20260510003508 | 20 | 67 | 1.6 | 6.4 | 0.00 | 0.00 | 0.00 | 42 | 1007.7 |
| 20260510002509 | 20 | 204 | 1.6 | 4.8 | 0.00 | 0.00 | 0.00 | 40 | 1007.5 |
| 20260510002011 | 21 | 274 | 1.6 | 6.4 | 0.00 | 0.00 | 0.00 | 39 | 1007.3 |
| 20260510001526 | 21 | 1 | 1.6 | 8.0 | 0.00 | 0.00 | 0.00 | 38 | 1007.3 |
| 20260510001004 | 21 | 339 | 4.8 | 9.7 | 0.00 | 0.00 | 0.00 | 36 | 1007.2 |
| 20260510000504 | 22 | 337 | 1.6 | 9.7 | 0.00 | 0.00 | 0.00 | 36 | 1007.1 |
| 20260509235505 | 22 | 345 | 4.8 | 9.7 | 0.00 | 0.00 | 0.00 | 33 | 1007.0 |
| 20260509234519 | 22 | 316 | 3.2 | 12.9 | 0.00 | 0.00 | 0.00 | 33 | 1006.9 |
| 20260509234008 | 22 | 354 | 3.2 | 12.9 | 0.00 | 0.00 | 0.00 | 34 | 1006.9 |
| 20260509232507 | 22 | 331 | 3.2 | 11.3 | 0.00 | 0.00 | 0.00 | 34 | 1006.9 |
| 20260509232002 | 22 | 64 | 4.8 | 11.3 | 0.00 | 0.00 | 0.00 | 33 | 1006.9 |
| 20260509231508 | 22 | 341 | 3.2 | 12.9 | 0.00 | 0.00 | 0.00 | 33 | 1006.8 |
| 20260509231003 | 23 | 270 | 6.4 | 16.1 | 0.00 | 0.00 | 0.00 | 31 | 1006.7 |
| 20260509230011 | 23 | 56 | 4.8 | 16.1 | 0.00 | 0.00 | 0.00 | 33 | 1006.4 |
| 20260509224008 | 24 | 308 | 4.8 | 11.3 | 0.00 | 0.00 | 0.00 | 28 | 1006.1 |
| 20260509223506 | 24 | 283 | 3.2 | 11.3 | 0.00 | 0.00 | 0.00 | 28 | 1006.1 |
| 20260509223018 | 24 | 323 | 4.8 | 20.9 | 0.00 | 0.00 | 0.00 | 29 | 1006.0 |
| 20260509222507 | 24 | 297 | 3.2 | 27.4 | 0.00 | 0.00 | 0.00 | 31 | 1006.1 |
| 20260509222009 | 24 | 296 | 14.5 | 30.6 | 0.00 | 0.00 | 0.00 | 30 | 1006.1 |
| 20260509221523 | 24 | 284 | 16.1 | 30.6 | 0.00 | 0.00 | 0.00 | 27 | 1006.2 |
| 20260509220506 | 25 | 279 | 19.3 | 33.8 | 0.00 | 0.00 | 0.00 | 27 | 1006.1 |
| 20260509220009 | 25 | 273 | 25.7 | 32.2 | 0.00 | 0.00 | 0.00 | 28 | 1006.0 |
| 20260509215504 | 25 | 281 | 20.9 | 33.8 | 0.00 | 0.00 | 0.00 | 28 | 1006.1 |
| 20260509215006 | 25 | 254 | 24.1 | 37.0 | 0.00 | 0.00 | 0.00 | 29 | 1006.1 |
| 20260509214005 | 24 | 266 | 14.5 | 33.8 | 0.00 | 0.00 | 0.00 | 35 | 1006.0 |
| 20260509213504 | 23 | 292 | 17.7 | 30.6 | 0.00 | 0.00 | 0.00 | 40 | 1006.1 |
| 20260509212507 | 23 | 289 | 17.7 | 29.0 | 0.00 | 0.00 | 0.00 | 40 | 1006.2 |
| 20260509211527 | 24 | 262 | 20.9 | 33.8 | 0.00 | 0.00 | 0.00 | 38 | 1006.2 |
| 20260509211008 | 24 | 271 | 25.7 | 33.8 | 0.00 | 0.00 | 0.00 | 37 | 1006.2 |
| 20260509210514 | 24 | 259 | 22.5 | 30.6 | 0.00 | 0.00 | 0.00 | 39 | 1006.3 |
| 20260509210023 | 23 | 259 | 17.7 | 33.8 | 0.00 | 0.00 | 0.00 | 39 | 1006.4 |
| 20260509205504 | 23 | 271 | 20.9 | 33.8 | 0.00 | 0.00 | 0.00 | 38 | 1006.4 |
| 20260509204508 | 23 | 276 | 14.5 | 29.0 | 0.00 | 0.00 | 0.00 | 40 | 1006.5 |
| 20260509204004 | 23 | 310 | 19.3 | 29.0 | 0.00 | 0.00 | 0.00 | 39 | 1006.5 |
| 20260509203503 | 23 | 290 | 20.9 | 29.0 | 0.00 | 0.00 | 0.00 | 37 | 1006.4 |
| 20260509202503 | 23 | 287 | 25.7 | 30.6 | 0.00 | 0.00 | 0.00 | 36 | 1006.4 |
| 20260509202006 | 23 | 285 | 19.3 | 33.8 | 0.00 | 0.00 | 0.00 | 37 | 1006.4 |
| 20260509201518 | 24 | 275 | 22.5 | 33.8 | 0.00 | 0.00 | 0.00 | 36 | 1006.4 |
| 20260509201007 | 23 | 316 | 4.8 | 33.8 | 0.00 | 0.00 | 0.00 | 40 | 1006.4 |
| 20260509200509 | 23 | 262 | 17.7 | 33.8 | 0.00 | 0.00 | 0.00 | 37 | 1006.4 |
| 20260509200024 | 23 | 281 | 19.3 | 33.8 | 0.00 | 0.00 | 0.00 | 42 | 1006.4 |
| 20260509195513 | 23 | 316 | 17.7 | 33.8 | 0.00 | 0.00 | 0.00 | 41 | 1006.5 |
| 20260509195008 | 23 | 266 | 19.3 | 37.0 | 0.00 | 0.00 | 0.00 | 42 | 1006.4 |
| 20260509194526 | 23 | 279 | 27.4 | 37.0 | 0.00 | 0.00 | 0.00 | 41 | 1006.6 |
| 20260509193503 | 23 | 281 | 11.3 | 33.8 | 0.00 | 0.00 | 0.00 | 39 | 1006.6 |
| 20260509193010 | 23 | 278 | 22.5 | 33.8 | 0.00 | 0.00 | 0.00 | 42 | 1006.6 |
| 20260509192507 | 23 | 285 | 22.5 | 41.8 | 0.00 | 0.00 | 0.00 | 42 | 1006.6 |
| 20260509192009 | 23 | 281 | 25.7 | 41.8 | 0.00 | 0.00 | 0.00 | 40 | 1006.6 |
| 20260509191518 | 23 | 307 | 16.1 | 40.2 | 0.00 | 0.00 | 0.00 | 44 | 1006.6 |
| 20260509191006 | 23 | 283 | 22.5 | 40.2 | 0.00 | 0.00 | 0.00 | 42 | 1006.6 |
| 20260509190507 | 23 | 276 | 17.7 | 40.2 | 0.00 | 0.00 | 0.00 | 42 | 1006.6 |
| 20260509185507 | 22 | 274 | 24.1 | 35.4 | 0.00 | 0.00 | 0.00 | 50 | 1006.5 |
| 20260509185014 | 22 | 280 | 25.7 | 38.6 | 0.00 | 0.00 | 0.00 | 48 | 1006.5 |
| 20260509184531 | 23 | 272 | 29.0 | 38.6 | 0.00 | 0.00 | 0.00 | 49 | 1006.3 |
| 20260509184008 | 22 | 283 | 16.1 | 40.2 | 0.00 | 0.00 | 0.00 | 47 | 1006.3 |
| 20260509183511 | 22 | 281 | 27.4 | 40.2 | 0.00 | 0.00 | 0.00 | 47 | 1006.2 |
| 20260509183026 | 22 | 233 | 24.1 | 35.4 | 0.00 | 0.00 | 0.00 | 54 | 1006.2 |
| 20260509182504 | 22 | 276 | 24.1 | 38.6 | 0.00 | 0.00 | 0.00 | 46 | 1006.2 |
| 20260509182010 | 22 | 282 | 24.1 | 38.6 | 0.00 | 0.00 | 0.00 | 52 | 1006.1 |
| 20260509181007 | 22 | 269 | 25.7 | 37.0 | 0.00 | 0.00 | 0.00 | 52 | 1006.2 |
| 20260509180508 | 22 | 249 | 22.5 | 37.0 | 0.00 | 0.00 | 0.00 | 51 | 1006.2 |
| 20260509175508 | 22 | 257 | 25.7 | 33.8 | 0.00 | 0.00 | 0.00 | 53 | 1006.2 |
| 20260509175008 | 21 | 250 | 25.7 | 33.8 | 0.00 | 0.00 | 0.00 | 56 | 1006.2 |
| 20260509174008 | 21 | 253 | 24.1 | 32.2 | 0.00 | 0.08 | 0.00 | 57 | 1006.1 |
| 20260509173509 | 21 | 250 | 19.3 | 35.4 | 0.00 | 0.15 | 0.00 | 60 | 1006.1 |
| 20260509173024 | 21 | 267 | 27.4 | 35.4 | 0.00 | 0.18 | 0.00 | 58 | 1005.9 |
| 20260509172512 | 21 | 234 | 22.5 | 35.4 | 0.00 | 0.20 | 0.00 | 61 | 1005.9 |
| 20260509172013 | 21 | 253 | 22.5 | 33.8 | 0.00 | 0.20 | 0.00 | 61 | 1006.0 |
| 20260509171003 | 20 | 257 | 24.1 | 35.4 | 0.00 | 0.23 | 0.00 | 63 | 1006.0 |
| 20260509170504 | 20 | 268 | 24.1 | 35.4 | 0.00 | 0.23 | 0.00 | 63 | 1006.1 |
| 20260509165508 | 20 | 262 | 29.0 | 37.0 | 0.00 | 0.25 | 0.00 | 67 | 1006.2 |
| 20260509165005 | 20 | 262 | 25.7 | 37.0 | 0.00 | 0.25 | 0.00 | 67 | 1006.1 |
| 20260509164006 | 19 | 267 | 27.4 | 35.4 | 0.00 | 0.25 | 0.00 | 68 | 1006.0 |
| 20260509163513 | 19 | 259 | 27.4 | 35.4 | 0.00 | 0.25 | 0.00 | 69 | 1006.1 |
| 20260509162008 | 18 | 261 | 25.7 | 37.0 | 0.00 | 0.25 | 0.00 | 73 | 1005.9 |
| 20260509161524 | 18 | 252 | 24.1 | 37.0 | 0.00 | 0.25 | 0.00 | 73 | 1005.9 |
| 20260509161014 | 18 | 274 | 25.7 | 33.8 | 0.00 | 0.25 | 0.00 | 74 | 1005.8 |
| 20260509160510 | 18 | 255 | 27.4 | 33.8 | 0.00 | 0.25 | 0.00 | 75 | 1005.8 |
| 20260509160012 | 18 | 248 | 20.9 | 35.4 | 0.00 | 0.25 | 0.00 | 76 | 1005.9 |
| 20260509155504 | 18 | 250 | 29.0 | 35.4 | 0.00 | 0.25 | 0.00 | 77 | 1006.0 |
| 20260509155006 | 18 | 250 | 24.1 | 37.0 | 0.00 | 0.25 | 0.00 | 77 | 1005.9 |
| 20260509154522 | 18 | 253 | 24.1 | 37.0 | 0.00 | 0.25 | 0.00 | 76 | 1005.9 |
| 20260509154009 | 17 | 272 | 20.9 | 33.8 | 0.00 | 0.25 | 0.00 | 82 | 1006.0 |
| 20260509153506 | 17 | 255 | 24.1 | 33.8 | 0.00 | 0.25 | 0.00 | 79 | 1006.1 |
| 20260509153023 | 17 | 269 | 24.1 | 32.2 | 0.00 | 0.25 | 0.00 | 80 | 1006.0 |
| 20260509152512 | 17 | 248 | 25.7 | 32.2 | 0.00 | 0.25 | 0.00 | 79 | 1005.8 |
| 20260509152008 | 17 | 254 | 25.7 | 32.2 | 0.00 | 0.25 | 0.00 | 79 | 1005.7 |